Time,TemperatureF,DewpointF,PressureIn,WindDirection,WindDirectionDegrees,WindSpeedMPH,WindSpeedGustMPH,Humidity,HourlyPrecipIn,Conditions,Clouds,dailyrainin,SolarRadiationWatts/m^2,SoftwareType,DateUTC
2013-06-01 00:03:00,74.0,71.0,-100.00,East,85,6.0,-999.0,88,0.00,,,-99.99,0.000000,,2013-06-01 04:03:00,
2013-06-01 00:12:00,74.0,71.0,-100.00,East,86,5.0,-999.0,89,0.00,,,-99.99,0.000000,,2013-06-01 04:12:00,
2013-06-01 00:23:00,74.0,71.0,-100.00,East,86,5.0,-999.0,89,0.00,,,-99.99,0.000000,,2013-06-01 04:23:00,
2013-06-01 00:33:00,74.0,71.0,-100.00,East,89,5.0,-999.0,89,0.00,,,-99.99,0.000000,,2013-06-01 04:33:00,
2013-06-01 00:42:00,74.0,71.0,-100.00,East,90,5.0,-999.0,89,0.00,,,-99.99,0.000000,,2013-06-01 04:42:00,
2013-06-01 00:53:00,74.0,71.0,-100.00,East,90,5.0,-999.0,89,0.00,,,-99.99,0.000000,,2013-06-01 04:53:00,
2013-06-01 01:02:00,74.0,71.0,-100.00,East,85,6.0,-999.0,90,0.00,,,-99.99,0.000000,,2013-06-01 05:02:00,
2013-06-01 01:12:00,74.0,71.0,-100.00,East,84,6.0,-999.0,90,0.00,,,-99.99,0.000000,,2013-06-01 05:12:00,
2013-06-01 01:22:00,74.0,71.0,-100.00,East,84,6.0,-999.0,90,0.00,,,-99.99,0.000000,,2013-06-01 05:22:00,
2013-06-01 01:32:00,74.0,71.0,-100.00,East,87,6.0,-999.0,91,0.00,,,-99.99,0.000000,,2013-06-01 05:32:00,
2013-06-01 01:42:00,74.0,71.0,-100.00,East,87,6.0,-999.0,91,0.00,,,-99.99,0.000000,,2013-06-01 05:42:00,
2013-06-01 01:52:00,74.0,71.0,-100.00,East,87,6.0,-999.0,91,0.00,,,-99.99,0.000000,,2013-06-01 05:52:00,
2013-06-01 02:01:00,74.0,71.0,-100.00,East,84,5.0,-999.0,91,0.00,,,-99.99,0.000000,,2013-06-01 06:01:00,
2013-06-01 02:12:00,73.0,71.0,-100.00,East,88,5.0,-999.0,91,0.00,,,-99.99,0.000000,,2013-06-01 06:12:00,
2013-06-01 02:22:00,73.0,71.0,-100.00,East,88,5.0,-999.0,91,0.00,,,-99.99,0.000000,,2013-06-01 06:22:00,
2013-06-01 02:32:00,73.0,71.0,-100.00,East,84,5.0,-999.0,92,0.00,,,-99.99,0.000000,,2013-06-01 06:32:00,
2013-06-01 02:42:00,73.0,71.0,-100.00,East,87,5.0,-999.0,92,0.00,,,-99.99,0.000000,,2013-06-01 06:42:00,
2013-06-01 02:52:00,73.0,71.0,-100.00,East,87,5.0,-999.0,92,0.00,,,-99.99,0.000000,,2013-06-01 06:52:00,
2013-06-01 03:01:00,73.0,71.0,-100.00,East,92,4.0,-999.0,92,0.00,,,-99.99,0.000000,,2013-06-01 07:01:00,
2013-06-01 03:11:00,73.0,71.0,-100.00,East,92,5.0,-999.0,92,0.00,,,-99.99,0.000000,,2013-06-01 07:11:00,
2013-06-01 03:22:00,73.0,71.0,-100.00,East,92,5.0,-999.0,92,0.00,,,-99.99,0.000000,,2013-06-01 07:22:00,
2013-06-01 03:32:00,73.0,71.0,-100.00,East,93,5.0,-999.0,92,0.00,,,-99.99,0.000000,,2013-06-01 07:32:00,
2013-06-01 03:42:00,73.0,71.0,-100.00,East,92,5.0,-999.0,92,0.00,,,-99.99,0.000000,,2013-06-01 07:42:00,
2013-06-01 03:52:00,73.0,71.0,-100.00,East,92,5.0,-999.0,92,0.00,,,-99.99,0.000000,,2013-06-01 07:52:00,
2013-06-01 04:02:00,73.0,71.0,-100.00,East,88,5.0,-999.0,92,0.00,,,-99.99,0.000000,,2013-06-01 08:02:00,
2013-06-01 04:11:00,73.0,71.0,-100.00,East,90,5.0,-999.0,92,0.00,,,-99.99,0.000000,,2013-06-01 08:11:00,
2013-06-01 04:21:00,73.0,71.0,-100.00,East,90,5.0,-999.0,92,0.00,,,-99.99,0.000000,,2013-06-01 08:21:00,
2013-06-01 04:32:00,73.0,71.0,-100.00,East,87,4.0,-999.0,92,0.00,,,-99.99,0.000000,,2013-06-01 08:32:00,
2013-06-01 04:42:00,73.0,71.0,-100.00,East,90,4.0,-999.0,92,0.00,,,-99.99,0.000000,,2013-06-01 08:42:00,
2013-06-01 04:52:00,73.0,71.0,-100.00,East,90,4.0,-999.0,92,0.00,,,-99.99,0.000000,,2013-06-01 08:52:00,
2013-06-01 05:01:00,73.0,71.0,-100.00,East,89,5.0,-999.0,92,0.00,,,-99.99,0.000000,,2013-06-01 09:01:00,
2013-06-01 05:12:00,74.0,71.0,-100.00,East,92,5.0,-999.0,92,0.00,,,-99.99,0.000000,,2013-06-01 09:12:00,
2013-06-01 05:21:00,74.0,71.0,-100.00,East,92,5.0,-999.0,92,0.00,,,-99.99,0.000000,,2013-06-01 09:21:00,
2013-06-01 05:33:00,74.0,71.0,-100.00,East,91,5.0,-999.0,91,0.00,,,-99.99,0.000000,,2013-06-01 09:33:00,
2013-06-01 05:43:00,74.0,71.0,-100.00,East,88,5.0,-999.0,92,0.00,,,-99.99,0.000000,,2013-06-01 09:43:00,
2013-06-01 05:53:00,74.0,71.0,-100.00,East,88,5.0,-999.0,92,0.00,,,-99.99,0.000000,,2013-06-01 09:53:00,
2013-06-01 06:02:00,74.0,71.0,-100.00,East,85,5.0,-999.0,92,0.00,,,-99.99,0.000000,,2013-06-01 10:02:00,
2013-06-01 06:13:00,74.0,71.0,-100.00,East,88,4.0,-999.0,92,0.00,,,-99.99,0.000000,,2013-06-01 10:13:00,
2013-06-01 06:22:00,74.0,71.0,-100.00,East,88,4.0,-999.0,92,0.00,,,-99.99,0.000000,,2013-06-01 10:22:00,
2013-06-01 06:33:00,74.0,71.0,-100.00,East,90,4.0,-999.0,92,0.00,,,-99.99,0.000000,,2013-06-01 10:33:00,
2013-06-01 06:42:00,74.0,72.0,-100.00,East,92,5.0,-999.0,92,0.00,,,-99.99,1.000000,,2013-06-01 10:42:00,
2013-06-01 06:52:00,74.0,72.0,-100.00,East,92,5.0,-999.0,92,0.00,,,-99.99,1.000000,,2013-06-01 10:52:00,
2013-06-01 07:02:00,74.0,72.0,-100.00,East,88,5.0,-999.0,92,0.00,,,-99.99,9.300000,,2013-06-01 11:02:00,
2013-06-01 07:11:00,75.0,72.0,-100.00,East,80,5.0,-999.0,91,0.00,,,-99.99,44.099998,,2013-06-01 11:11:00,
2013-06-01 07:21:00,75.0,72.0,-100.00,East,80,5.0,-999.0,91,0.00,,,-99.99,44.099998,,2013-06-01 11:21:00,
2013-06-01 07:32:00,75.0,72.0,-100.00,East,79,6.0,-999.0,91,0.00,,,-99.99,77.400002,,2013-06-01 11:32:00,
2013-06-01 07:42:00,75.0,72.0,-100.00,East,86,5.0,-999.0,90,0.00,,,-99.99,123.900002,,2013-06-01 11:42:00,
2013-06-01 07:52:00,75.0,72.0,-100.00,East,86,5.0,-999.0,90,0.00,,,-99.99,123.900002,,2013-06-01 11:52:00,
2013-06-01 08:01:00,76.0,72.0,-100.00,East,88,6.0,-999.0,88,0.00,,,-99.99,170.699997,,2013-06-01 12:01:00,
2013-06-01 08:12:00,77.0,73.0,-100.00,East,86,5.0,-999.0,87,0.00,,,-99.99,208.699997,,2013-06-01 12:12:00,
2013-06-01 08:21:00,77.0,73.0,-100.00,East,86,5.0,-999.0,87,0.00,,,-99.99,208.699997,,2013-06-01 12:21:00,
2013-06-01 08:32:00,77.0,73.0,-100.00,East,87,6.0,-999.0,86,0.00,,,-99.99,178.899994,,2013-06-01 12:32:00,
2013-06-01 08:42:00,79.0,74.0,-100.00,East,99,6.0,-999.0,84,0.00,,,-99.99,341.700012,,2013-06-01 12:42:00,
2013-06-01 08:52:00,79.0,74.0,-100.00,East,99,6.0,-999.0,84,0.00,,,-99.99,341.700012,,2013-06-01 12:52:00,
2013-06-01 09:01:00,80.0,74.0,-100.00,ESE,102,7.0,-999.0,82,0.00,,,-99.99,343.299988,,2013-06-01 13:01:00,
2013-06-01 09:12:00,79.0,74.0,-100.00,ESE,109,6.0,-999.0,83,0.00,,,-99.99,250.300003,,2013-06-01 13:12:00,
2013-06-01 09:22:00,79.0,74.0,-100.00,ESE,109,6.0,-999.0,83,0.00,,,-99.99,250.300003,,2013-06-01 13:22:00,
2013-06-01 09:32:00,80.0,74.0,-100.00,ESE,111,6.0,-999.0,82,0.00,,,-99.99,377.299988,,2013-06-01 13:32:00,
2013-06-01 09:42:00,82.0,74.0,-100.00,ESE,108,6.0,-999.0,78,0.00,,,-99.99,485.299988,,2013-06-01 13:42:00,
2013-06-01 09:52:00,82.0,74.0,-100.00,ESE,108,6.0,-999.0,78,0.00,,,-99.99,485.299988,,2013-06-01 13:52:00,
2013-06-01 10:02:00,82.0,74.0,-100.00,ESE,115,6.0,-999.0,77,0.00,,,-99.99,530.299988,,2013-06-01 14:02:00,
2013-06-01 10:11:00,83.0,74.0,-100.00,ESE,112,6.0,-999.0,74,0.00,,,-99.99,598.700012,,2013-06-01 14:11:00,
2013-06-01 10:21:00,83.0,74.0,-100.00,ESE,112,6.0,-999.0,74,0.00,,,-99.99,598.700012,,2013-06-01 14:21:00,
2013-06-01 10:32:00,84.0,74.0,-100.00,ESE,110,6.0,-999.0,72,0.00,,,-99.99,642.900024,,2013-06-01 14:32:00,
2013-06-01 10:42:00,84.0,74.0,-100.00,ESE,114,6.0,-999.0,72,0.00,,,-99.99,502.000000,,2013-06-01 14:42:00,
2013-06-01 10:52:00,84.0,74.0,-100.00,ESE,114,6.0,-999.0,72,0.00,,,-99.99,502.000000,,2013-06-01 14:52:00,
2013-06-01 11:02:00,83.0,73.0,-100.00,ESE,117,5.0,-999.0,73,0.00,,,-99.99,337.799988,,2013-06-01 15:02:00,
2013-06-01 11:11:00,83.0,73.0,-100.00,ESE,108,6.0,-999.0,72,0.00,,,-99.99,286.899994,,2013-06-01 15:11:00,
2013-06-01 11:21:00,83.0,73.0,-100.00,ESE,108,6.0,-999.0,72,0.00,,,-99.99,286.899994,,2013-06-01 15:21:00,
2013-06-01 11:33:00,83.0,73.0,-100.00,ESE,106,6.0,-999.0,72,0.00,,,-99.99,318.000000,,2013-06-01 15:33:00,
2013-06-01 11:43:00,84.0,73.0,-100.00,ESE,113,5.0,-999.0,69,0.00,,,-99.99,538.400024,,2013-06-01 15:43:00,
2013-06-01 11:54:00,84.0,73.0,-100.00,ESE,113,5.0,-999.0,69,0.00,,,-99.99,538.400024,,2013-06-01 15:54:00,
2013-06-01 12:03:00,84.0,73.0,-100.00,ESE,113,6.0,-999.0,68,0.00,,,-99.99,415.500000,,2013-06-01 16:03:00,
2013-06-01 12:12:00,85.0,73.0,-100.00,SE,124,6.0,-999.0,68,0.00,,,-99.99,494.200012,,2013-06-01 16:12:00,
2013-06-01 12:23:00,85.0,73.0,-100.00,SE,124,6.0,-999.0,68,0.00,,,-99.99,494.200012,,2013-06-01 16:23:00,
2013-06-01 12:33:00,86.0,74.0,-100.00,East,96,5.0,-999.0,67,0.00,,,-99.99,504.700012,,2013-06-01 16:33:00,
2013-06-01 12:42:00,85.0,74.0,-100.00,East,97,6.0,-999.0,69,0.00,,,-99.99,475.600006,,2013-06-01 16:42:00,
2013-06-01 12:52:00,85.0,74.0,-100.00,East,97,6.0,-999.0,69,0.00,,,-99.99,475.600006,,2013-06-01 16:52:00,
2013-06-01 13:02:00,87.0,75.0,-100.00,East,88,7.0,-999.0,66,0.00,,,-99.99,874.000000,,2013-06-01 17:02:00,
2013-06-01 13:12:00,85.0,74.0,-100.00,East,84,5.0,-999.0,68,0.00,,,-99.99,360.000000,,2013-06-01 17:12:00,
2013-06-01 13:22:00,85.0,74.0,-100.00,East,84,5.0,-999.0,68,0.00,,,-99.99,360.000000,,2013-06-01 17:22:00,
2013-06-01 13:32:00,86.0,74.0,-100.00,ESE,112,6.0,-999.0,67,0.00,,,-99.99,742.000000,,2013-06-01 17:32:00,
2013-06-01 13:42:00,87.0,74.0,-100.00,East,84,7.0,-999.0,65,0.00,,,-99.99,361.299988,,2013-06-01 17:42:00,
2013-06-01 13:52:00,87.0,74.0,-100.00,East,84,7.0,-999.0,65,0.00,,,-99.99,361.299988,,2013-06-01 17:52:00,
2013-06-01 14:01:00,85.0,74.0,-100.00,East,87,8.0,-999.0,68,0.00,,,-99.99,359.399994,,2013-06-01 18:01:00,
2013-06-01 14:12:00,84.0,74.0,-100.00,East,90,7.0,-999.0,69,0.00,,,-99.99,233.300003,,2013-06-01 18:12:00,
2013-06-01 14:22:00,84.0,74.0,-100.00,East,90,7.0,-999.0,69,0.00,,,-99.99,233.300003,,2013-06-01 18:22:00,
2013-06-01 14:32:00,86.0,74.0,-100.00,East,80,9.0,-999.0,68,0.00,,,-99.99,760.000000,,2013-06-01 18:32:00,
2013-06-01 14:42:00,88.0,74.0,-100.00,ESE,103,6.0,-999.0,63,0.00,,,-99.99,981.000000,,2013-06-01 18:42:00,
2013-06-01 14:52:00,88.0,74.0,-100.00,ESE,103,6.0,-999.0,63,0.00,,,-99.99,981.000000,,2013-06-01 18:52:00,
2013-06-01 15:02:00,88.0,74.0,-100.00,East,87,8.0,-999.0,63,0.00,,,-99.99,370.600006,,2013-06-01 19:02:00,
2013-06-01 15:12:00,88.0,74.0,-100.00,East,99,7.0,-999.0,62,0.00,,,-99.99,856.000000,,2013-06-01 19:12:00,
2013-06-01 15:21:00,88.0,74.0,-100.00,East,99,7.0,-999.0,62,0.00,,,-99.99,856.000000,,2013-06-01 19:21:00,
2013-06-01 15:32:00,89.0,73.0,-100.00,ESE,106,7.0,-999.0,60,0.00,,,-99.99,866.000000,,2013-06-01 19:32:00,
2013-06-01 15:42:00,90.0,73.0,-100.00,ESE,105,6.0,-999.0,58,0.00,,,-99.99,896.000000,,2013-06-01 19:42:00,
2013-06-01 15:52:00,90.0,73.0,-100.00,ESE,105,6.0,-999.0,58,0.00,,,-99.99,896.000000,,2013-06-01 19:52:00,
2013-06-01 16:02:00,90.0,73.0,-100.00,East,90,7.0,-999.0,57,0.00,,,-99.99,788.000000,,2013-06-01 20:02:00,
2013-06-01 16:12:00,89.0,73.0,-100.00,East,101,7.0,-999.0,57,0.00,,,-99.99,624.299988,,2013-06-01 20:12:00,
2013-06-01 16:21:00,89.0,73.0,-100.00,East,101,7.0,-999.0,57,0.00,,,-99.99,624.299988,,2013-06-01 20:21:00,
2013-06-01 16:32:00,90.0,74.0,-100.00,East,99,6.0,-999.0,58,0.00,,,-99.99,395.100006,,2013-06-01 20:32:00,
2013-06-01 16:42:00,87.0,73.0,-100.00,East,99,6.0,-999.0,63,0.00,,,-99.99,147.600006,,2013-06-01 20:42:00,
2013-06-01 16:52:00,87.0,73.0,-100.00,East,99,6.0,-999.0,63,0.00,,,-99.99,147.600006,,2013-06-01 20:52:00,
2013-06-01 17:01:00,87.0,73.0,-100.00,East,93,6.0,-999.0,63,0.00,,,-99.99,210.800003,,2013-06-01 21:01:00,
2013-06-01 17:12:00,89.0,73.0,-100.00,ESE,107,6.0,-999.0,59,0.00,,,-99.99,590.099976,,2013-06-01 21:12:00,
2013-06-01 17:21:00,89.0,73.0,-100.00,ESE,107,6.0,-999.0,59,0.00,,,-99.99,590.099976,,2013-06-01 21:21:00,
2013-06-01 17:33:00,87.0,74.0,-100.00,SE,139,5.0,-999.0,65,0.00,,,-99.99,124.599998,,2013-06-01 21:33:00,
2013-06-01 17:43:00,83.0,74.0,-100.00,South,170,3.0,-999.0,74,0.00,,,-99.99,31.000000,,2013-06-01 21:43:00,
2013-06-01 17:53:00,83.0,74.0,-100.00,South,170,3.0,-999.0,74,0.00,,,-99.99,31.000000,,2013-06-01 21:53:00,
2013-06-01 18:03:00,81.0,75.0,-100.00,SSE,156,3.0,-999.0,81,0.11,,,-99.99,19.100000,,2013-06-01 22:03:00,
2013-06-01 18:12:00,79.0,75.0,-100.00,SSE,155,4.0,-999.0,89,0.19,,,-99.99,56.500000,,2013-06-01 22:12:00,
2013-06-01 18:23:00,79.0,75.0,-100.00,SSE,155,4.0,-999.0,89,0.19,,,-99.99,56.500000,,2013-06-01 22:23:00,
2013-06-01 18:33:00,78.0,75.0,-100.00,SSE,149,6.0,-999.0,92,0.03,,,-99.99,46.400002,,2013-06-01 22:33:00,
2013-06-01 18:42:00,77.0,75.0,-100.00,SSE,158,5.0,-999.0,93,0.49,,,-99.99,16.900000,,2013-06-01 22:42:00,
2013-06-01 18:53:00,77.0,75.0,-100.00,SSE,158,5.0,-999.0,93,0.49,,,-99.99,16.900000,,2013-06-01 22:53:00,
2013-06-01 19:02:00,75.0,74.0,-100.00,SSE,153,6.0,-999.0,94,0.11,,,-99.99,23.799999,,2013-06-01 23:02:00,
2013-06-01 19:12:00,74.0,73.0,-100.00,SSE,150,6.0,-999.0,94,0.00,,,-99.99,21.500000,,2013-06-01 23:12:00,
2013-06-01 19:22:00,74.0,73.0,-100.00,SSE,150,6.0,-999.0,94,0.00,,,-99.99,21.500000,,2013-06-01 23:22:00,
2013-06-01 19:32:00,74.0,72.0,-100.00,SSE,148,6.0,-999.0,94,0.00,,,-99.99,10.300000,,2013-06-01 23:32:00,
2013-06-01 19:42:00,74.0,73.0,-100.00,SE,143,5.0,-999.0,95,0.00,,,-99.99,4.500000,,2013-06-01 23:42:00,
2013-06-01 19:52:00,74.0,73.0,-100.00,SE,143,5.0,-999.0,95,0.00,,,-99.99,4.500000,,2013-06-01 23:52:00,
2013-06-01 20:02:00,74.0,72.0,-100.00,SSE,156,4.0,-999.0,94,0.00,,,-99.99,4.700000,,2013-06-02 00:02:00,
2013-06-01 20:11:00,74.0,73.0,-100.00,SSE,153,4.0,-999.0,94,0.00,,,-99.99,3.000000,,2013-06-02 00:11:00,
2013-06-01 20:22:00,74.0,73.0,-100.00,SSE,153,4.0,-999.0,94,0.00,,,-99.99,3.000000,,2013-06-02 00:22:00,
2013-06-01 20:32:00,75.0,73.0,-100.00,SSE,148,3.0,-999.0,94,0.00,,,-99.99,1.100000,,2013-06-02 00:32:00,
2013-06-01 20:42:00,75.0,74.0,-100.00,South,173,2.0,-999.0,94,0.00,,,-99.99,0.100000,,2013-06-02 00:42:00,
2013-06-01 20:52:00,75.0,74.0,-100.00,South,173,2.0,-999.0,94,0.00,,,-99.99,0.100000,,2013-06-02 00:52:00,
2013-06-01 21:01:00,76.0,74.0,-100.00,SSE,166,3.0,-999.0,95,0.00,,,-99.99,0.000000,,2013-06-02 01:01:00,
2013-06-01 21:11:00,76.0,74.0,-100.00,South,169,2.0,-999.0,95,0.00,,,-99.99,0.000000,,2013-06-02 01:11:00,
2013-06-01 21:21:00,76.0,74.0,-100.00,South,169,2.0,-999.0,95,0.00,,,-99.99,0.000000,,2013-06-02 01:21:00,
2013-06-01 21:32:00,76.0,74.0,-100.00,South,169,2.0,-999.0,95,0.00,,,-99.99,0.000000,,2013-06-02 01:32:00,
2013-06-01 21:42:00,76.0,74.0,-100.00,South,169,1.0,-999.0,95,0.00,,,-99.99,0.000000,,2013-06-02 01:42:00,
2013-06-01 21:52:00,76.0,74.0,-100.00,South,169,1.0,-999.0,95,0.00,,,-99.99,0.000000,,2013-06-02 01:52:00,
2013-06-01 22:01:00,76.0,74.0,-100.00,South,182,1.0,-999.0,95,0.00,,,-99.99,0.000000,,2013-06-02 02:01:00,
2013-06-01 22:12:00,75.0,73.0,-100.00,SSW,208,1.0,-999.0,95,0.00,,,-99.99,0.000000,,2013-06-02 02:12:00,
2013-06-01 22:21:00,75.0,73.0,-100.00,SSW,208,1.0,-999.0,95,0.00,,,-99.99,0.000000,,2013-06-02 02:21:00,
2013-06-01 22:32:00,74.0,73.0,-100.00,South,177,1.0,-999.0,94,0.00,,,-99.99,0.000000,,2013-06-02 02:32:00,
2013-06-01 22:42:00,75.0,73.0,-100.00,NW,309,1.0,-999.0,94,0.00,,,-99.99,0.000000,,2013-06-02 02:42:00,
2013-06-01 22:52:00,75.0,73.0,-100.00,NW,309,1.0,-999.0,94,0.00,,,-99.99,0.000000,,2013-06-02 02:52:00,
2013-06-01 23:02:00,75.0,73.0,-100.00,South,183,1.0,-999.0,94,0.00,,,-99.99,0.000000,,2013-06-02 03:02:00,
2013-06-01 23:11:00,75.0,73.0,-100.00,NNE,16,3.0,-999.0,94,0.00,,,-99.99,0.000000,,2013-06-02 03:11:00,
2013-06-01 23:21:00,75.0,73.0,-100.00,NNE,16,3.0,-999.0,94,0.00,,,-99.99,0.000000,,2013-06-02 03:21:00,
2013-06-01 23:33:00,74.0,73.0,-100.00,ENE,64,2.0,-999.0,94,0.00,,,-99.99,0.000000,,2013-06-02 03:33:00,
2013-06-01 23:43:00,74.0,73.0,-100.00,NE,44,2.0,-999.0,94,0.00,,,-99.99,0.000000,,2013-06-02 03:43:00,
2013-06-01 23:53:00,74.0,73.0,-100.00,NE,44,2.0,-999.0,94,0.00,,,-99.99,0.000000,,2013-06-02 03:53:00,